WR9A-13 Weather Reports


time (UTC)temp
F
wind
direction
speed
knots
gust
knots
rain 1hr
in
rain 24hr
in
rain mn
in
humidity
%
barometer
mb
20260906090027 70 20 0.9 3.5 0.00 0.00 0.00 88 1016.8
20260906085525 70 49 0.0 2.6 0.00 0.00 0.00 88 1016.8
20260906085033 70 52 0.9 5.2 0.00 0.00 0.00 88 1016.8
20260906084529 70 27 1.7 5.2 0.00 0.00 0.00 88 1016.8
20260906084018 70 33 0.9 3.5 0.00 0.00 0.00 88 1016.8
20260906083535 70 18 0.9 3.5 0.00 0.00 0.00 88 1016.8
20260906083023 70 35 0.9 3.5 0.00 0.00 0.00 88 1016.7
20260906082540 70 49 1.7 5.2 0.00 0.00 0.00 89 1016.7
20260906082029 70 38 0.9 3.5 0.00 0.00 0.00 89 1016.7
20260906081527 70 350 1.7 3.5 0.00 0.00 0.00 89 1016.7
20260906081016 70 30 1.7 3.5 0.00 0.00 0.00 89 1016.8
20260906080533 70 31 0.9 2.6 0.00 0.00 0.00 88 1016.7
20260906080017 71 28 0.9 2.6 0.00 0.00 0.00 88 1016.8
20260906075515 71 41 0.9 2.6 0.00 0.00 0.00 88 1016.7
20260906075017 71 1 0.9 3.5 0.00 0.00 0.00 88 1016.5
20260906074533 71 30 0.9 3.5 0.00 0.00 0.00 88 1016.6
20260906074022 71 56 1.7 3.5 0.00 0.00 0.00 87 1016.6
20260906073519 71 23 0.9 5.2 0.00 0.00 0.00 88 1016.6
20260906073037 71 29 1.7 5.2 0.00 0.00 0.00 88 1016.5
20260906072526 71 17 0.9 3.5 0.00 0.00 0.00 88 1016.4
20260906072043 71 39 0.9 7.0 0.00 0.00 0.00 88 1016.4
20260906071530 71 90 1.7 7.0 0.00 0.00 0.00 88 1016.5
20260906071017 72 70 1.7 5.2 0.00 0.00 0.00 88 1016.4
20260906070534 72 49 0.9 4.3 0.00 0.00 0.00 88 1016.4
20260906070026 72 37 0.9 4.3 0.00 0.00 0.00 89 1016.4
20260906065515 72 8 0.9 2.6 0.00 0.00 0.00 89 1016.6
20260906065034 72 43 0.9 2.6 0.00 0.00 0.00 89 1016.5
20260906064521 72 10 1.7 4.3 0.00 0.00 0.00 89 1016.4
20260906064017 72 51 0.9 2.6 0.00 0.00 0.00 89 1016.4
20260906063526 72 42 0.9 2.6 0.00 0.00 0.00 89 1016.5
20260906063023 73 46 0.9 2.6 0.00 0.00 0.00 89 1016.5
20260906062531 73 89 0.9 2.6 0.00 0.00 0.00 90 1016.5
20260906062029 73 22 0.9 2.6 0.00 0.00 0.00 90 1016.4
20260906061518 73 49 0.0 3.5 0.00 0.00 0.00 90 1016.3
20260906061015 73 51 0.9 4.3 0.00 0.00 0.00 90 1016.3
20260906060524 73 99 0.9 5.2 0.00 0.00 0.00 90 1016.2
20260906060014 73 82 1.7 5.2 0.00 0.00 0.00 90 1016.3
20260906055531 73 38 0.9 5.2 0.00 0.00 0.00 90 1016.2
20260906055019 73 45 2.6 5.2 0.00 0.00 0.00 90 1016.1
20260906054536 73 72 1.7 5.2 0.00 0.00 0.00 90 1016.1
20260906054025 73 76 0.9 2.6 0.00 0.00 0.00 90 1016.1
20260906053542 73 43 0.9 3.5 0.00 0.00 0.00 90 1016.2
20260906053032 73 69 0.9 4.3 0.00 0.00 0.00 90 1016.1
20260906052528 74 28 0.9 4.3 0.00 0.00 0.00 89 1016.0
20260906052017 74 31 0.9 3.5 0.00 0.00 0.00 89 1016.0
20260906051534 74 57 1.7 3.5 0.00 0.00 0.00 89 1016.0
20260906051022 74 64 0.9 3.5 0.00 0.00 0.00 89 1016.0
20260906050536 74 23 0.0 2.6 0.00 0.00 0.00 89 1016.1
20260906050017 74 204 0.9 2.6 0.00 0.00 0.00 89 1015.8
20260906045515 74 9 0.9 2.6 0.00 0.00 0.00 89 1015.8
20260906045024 74 22 0.0 2.6 0.00 0.00 0.00 89 1015.9
20260906044520 74 23 0.9 2.6 0.00 0.00 0.00 89 1015.7
20260906044038 74 52 0.9 2.6 0.00 0.00 0.00 89 1015.7
20260906043527 74 8 0.0 2.6 0.00 0.00 0.00 89 1015.7
20260906043015 74 3 0.0 3.5 0.00 0.00 0.00 89 1015.6
20260906042532 74 59 0.9 3.5 0.00 0.00 0.00 89 1015.6
20260906042021 74 112 0.9 3.5 0.00 0.00 0.00 89 1015.7
20260906041517 74 26 0.9 2.6 0.00 0.00 0.00 89 1015.6
20260906041025 74 36 0.9 6.1 0.00 0.00 0.00 88 1015.7
20260906040522 74 347 0.9 6.1 0.00 0.00 0.00 89 1015.6
20260906040030 74 358 1.7 5.2 0.00 0.00 0.00 88 1015.7
20260906035518 74 8 0.9 6.1 0.00 0.00 0.00 88 1015.6
20260906035016 74 349 2.6 6.1 0.00 0.00 0.00 88 1015.6
20260906034524 74 7 0.9 5.2 0.00 0.00 0.00 88 1015.8
20260906034021 74 9 1.7 7.8 0.00 0.00 0.00 88 1015.9
20260906033530 74 7 2.6 8.7 0.00 0.00 0.00 87 1015.9
20260906033026 74 3 1.7 6.1 0.00 0.00 0.00 87 1015.8
20260906032514 74 10 1.7 10.4 0.00 0.00 0.00 87 1015.6
20260906032031 74 351 3.5 10.4 0.00 0.00 0.00 87 1015.7
20260906031520 74 357 5.2 9.6 0.00 0.00 0.00 86 1015.8
20260906031018 74 18 2.6 9.6 0.00 0.00 0.00 86 1015.6
20260906030525 75 53 2.6 8.7 0.00 0.00 0.00 86 1015.6
20260906030017 75 353 3.5 8.7 0.00 0.00 0.00 86 1015.6
20260906025534 75 16 3.5 8.7 0.00 0.00 0.00 86 1015.5
20260906025022 75 7 3.5 10.4 0.00 0.00 0.00 86 1015.5
20260906024538 75 28 3.5 11.3 0.00 0.00 0.00 86 1015.6
20260906024025 75 346 7.0 13.9 0.00 0.00 0.00 85 1015.4
20260906023524 75 16 7.0 13.9 0.00 0.00 0.00 85 1015.4
20260906023031 75 335 7.0 11.3 0.00 0.00 0.00 85 1015.3
20260906022528 75 340 5.2 11.3 0.00 0.00 0.00 85 1015.1
20260906022016 75 328 4.3 11.3 0.00 0.00 0.00 84 1015.1
20260906021529 76 356 7.0 10.4 0.00 0.00 0.00 84 1015.0
20260906021016 76 14 7.0 10.4 0.00 0.00 0.00 84 1014.9
20260906020534 76 355 4.3 10.4 0.00 0.00 0.00 84 1014.9
20260906020017 76 10 7.0 12.2 0.00 0.00 0.00 84 1014.9
20260906015532 77 293 6.1 12.2 0.00 0.00 0.00 83 1014.9
20260906015020 77 4 4.3 9.6 0.00 0.00 0.00 83 1014.9
20260906014518 77 351 7.0 10.4 0.00 0.00 0.00 82 1014.8
20260906014035 77 358 3.5 10.4 0.00 0.00 0.00 82 1014.9
20260906013523 77 349 4.3 10.4 0.00 0.00 0.00 82 1014.8
20260906013040 77 6 6.1 13.0 0.00 0.00 0.00 82 1014.7
20260906012529 78 5 4.3 13.0 0.00 0.00 0.00 81 1014.6
20260906012018 78 15 6.1 14.8 0.00 0.00 0.00 81 1014.7
20260906011515 78 6 6.1 14.8 0.00 0.00 0.00 81 1014.6
20260906011033 79 346 7.0 14.8 0.00 0.00 0.00 80 1014.4
20260906010520 79 340 7.0 14.8 0.00 0.00 0.00 80 1014.3
20260906010014 79 357 6.1 12.2 0.00 0.00 0.00 80 1014.1
20260906005520 80 13 5.2 13.0 0.00 0.00 0.00 79 1014.1
20260906005018 80 9 8.7 13.0 0.00 0.00 0.00 79 1014.0
20260906004527 80 5 4.3 10.4 0.00 0.00 0.00 78 1013.9
20260906004024 81 350 7.0 12.2 0.00 0.00 0.00 78 1013.9
20260906003542 81 1 7.0 13.0 0.00 0.00 0.00 77 1014.0
20260906003029 81 12 8.7 13.0 0.00 0.00 0.00 76 1013.9
20260906002516 82 349 7.0 13.9 0.00 0.00 0.00 76 1013.9
20260906002014 82 1 7.0 13.9 0.00 0.00 0.00 76 1013.9
20260906001523 82 4 7.8 11.3 0.00 0.00 0.00 75 1013.9
20260906001019 83 2 3.5 7.8 0.00 0.00 0.00 75 1014.0
20260906000528 83 5 5.2 12.2 0.00 0.00 0.00 74 1013.9
20260906000019 83 11 6.1 12.2 0.00 0.00 0.00 74 1013.9
20260905235536 84 340 4.3 11.3 0.00 0.00 0.00 74 1013.8
20260905235023 84 17 5.2 12.2 0.00 0.00 0.00 73 1013.8
20260905234521 84 341 6.1 12.2 0.00 0.00 0.00 73 1013.7
20260905234030 84 1 4.3 15.6 0.00 0.00 0.00 72 1013.7
20260905233528 85 346 7.8 15.6 0.00 0.00 0.00 72 1013.5
20260905233015 85 26 7.8 13.0 0.00 0.00 0.00 71 1013.6
20260905232528 86 19 7.0 12.2 0.00 0.00 0.00 71 1013.6
20260905232017 86 342 4.3 9.6 0.00 0.00 0.00 71 1013.4
20260905231517 86 64 4.3 13.9 0.00 0.00 0.00 70 1013.5
20260905231024 86 10 9.6 14.8 0.00 0.00 0.00 70 1013.5
20260905230522 87 348 7.8 14.8 0.00 0.00 0.00 69 1013.4
20260905230032 87 347 7.0 17.4 0.00 0.00 0.00 70 1013.5
20260905225520 87 355 7.0 17.4 0.00 0.00 0.00 70 1013.3
20260905225037 87 1 7.8 15.6 0.00 0.00 0.00 69 1013.3
20260905224526 88 350 6.1 12.2 0.00 0.00 0.00 69 1013.1
20260905224014 88 17 5.2 10.4 0.00 0.00 0.00 69 1013.1
20260905223532 88 27 6.1 13.9 0.00 0.00 0.00 69 1013.1
20260905223029 88 339 6.1 13.9 0.00 0.00 0.00 69 1013.0
20260905222518 89 29 5.2 12.2 0.00 0.00 0.00 69 1012.8
20260905222033 89 11 5.2 12.2 0.00 0.00 0.00 69 1012.6
20260905221521 89 301 6.1 15.6 0.00 0.00 0.00 69 1012.6
20260905221038 89 5 7.0 15.6 0.00 0.00 0.00 69 1012.5
20260905220527 90 5 7.8 13.9 0.00 0.00 0.00 69 1012.5
20260905220018 90 347 6.1 12.2 0.00 0.00 0.00 69 1012.4
20260905215525 90 35 3.5 12.2 0.00 0.00 0.00 69 1012.5
20260905215023 90 335 5.2 13.0 0.00 0.00 0.00 70 1012.6
20260905214540 90 12 5.2 13.0 0.00 0.00 0.00 69 1012.5
20260905214028 91 4 6.1 12.2 0.00 0.00 0.00 69 1012.5
20260905213516 91 349 7.8 12.2 0.00 0.00 0.00 69 1012.4
20260905213014 91 7 3.5 13.0 0.00 0.00 0.00 69 1012.4
20260905212523 92 359 6.1 13.0 0.00 0.00 0.00 68 1012.2
20260905212021 92 340 6.1 11.3 0.00 0.00 0.00 68 1012.2
20260905211538 93 337 4.3 12.2 0.00 0.00 0.00 68 1012.1
20260905211027 93 309 4.3 12.2 0.00 0.00 0.00 67 1012.0
20260905210514 93 32 5.2 12.2 0.00 0.00 0.00 67 1012.0
20260905210026 93 341 6.1 13.0 0.00 0.00 0.00 67 1012.1
20260905205523 94 4 6.1 13.0 0.00 0.00 0.00 65 1012.1
20260905205031 94 344 7.0 12.2 0.00 0.00 0.00 65 1012.2
20260905204529 94 234 5.2 8.7 0.00 0.00 0.00 65 1012.1
20260905204018 94 274 2.6 9.6 0.00 0.00 0.00 65 1012.2
20260905203516 94 264 3.5 9.6 0.00 0.00 0.00 65 1012.3
20260905203019 94 264 4.3 8.7 0.00 0.00 0.00 64 1012.2
20260905202516 94 300 2.6 7.8 0.00 0.00 0.00 64 1012.3
20260905202025 94 313 3.5 10.4 0.00 0.00 0.00 63 1012.3
20260905201523 94 315 3.5 10.4 0.00 0.00 0.00 65 1012.2
20260905201031 93 324 2.6 7.0 0.00 0.00 0.00 66 1012.2
20260905200528 92 332 1.7 7.0 0.00 0.00 0.00 67 1012.3
20260905200039 92 313 2.6 6.1 0.00 0.00 0.00 66 1012.3
20260905195527 92 3 3.5 9.6 0.00 0.00 0.00 66 1012.3
20260905195025 93 343 5.2 9.6 0.00 0.00 0.00 64 1012.3
20260905194514 93 233 2.6 7.0 0.00 0.00 0.00 66 1012.4
20260905194031 94 238 2.6 7.0 0.00 0.00 0.00 66 1012.4
20260905193520 94 310 2.6 8.7 0.00 0.00 0.00 66 1012.7
20260905193037 93 193 3.5 7.8 0.00 0.00 0.00 67 1012.7
20260905192525 93 225 3.5 7.8 0.00 0.00 0.00 68 1012.9
20260905192042 92 259 2.6 7.8 0.00 0.00 0.00 68 1013.0
20260905191530 93 315 2.6 8.7 0.00 0.00 0.00 67 1013.0
20260905191027 93 324 3.5 7.8 0.00 0.00 0.00 66 1012.9
20260905190516 93 328 4.3 7.8 0.00 0.00 0.00 67 1012.8
20260905190028 93 195 3.5 7.0 0.00 0.00 0.00 67 1012.9
20260905185517 93 309 2.6 7.0 0.00 0.00 0.00 65 1013.1
20260905185014 93 315 0.9 7.0 0.00 0.00 0.00 66 1013.1
20260905184522 93 322 2.6 7.0 0.00 0.00 0.00 65 1013.1
20260905184019 93 278 2.6 6.1 0.00 0.00 0.00 67 1013.2
20260905183537 93 347 0.9 4.3 0.00 0.00 0.00 66 1013.2
20260905183026 93 122 1.7 5.2 0.00 0.00 0.00 66 1013.4
20260905182515 93 307 2.6 4.3 0.00 0.00 0.00 66 1013.5
20260905182032 93 213 2.6 4.3 0.00 0.00 0.00 66 1013.6
20260905181520 93 256 2.6 4.3 0.00 0.00 0.00 66 1013.8
20260905181016 93 197 2.6 7.0 0.00 0.00 0.00 67 1014.0
20260905180524 92 192 2.6 7.0 0.00 0.00 0.00 67 1014.0
20260905180015 92 141 2.6 7.8 0.00 0.00 0.00 66 1014.1
20260905175533 93 217 3.5 7.8 0.00 0.00 0.00 65 1014.1
20260905175021 92 264 1.7 7.8 0.00 0.00 0.00 64 1014.2
20260905174519 92 205 3.5 7.8 0.00 0.00 0.00 66 1014.3
20260905174023 92 210 1.7 6.1 0.00 0.00 0.00 65 1014.2
20260905173520 92 202 1.7 4.3 0.00 0.00 0.00 66 1014.2
20260905173029 92 182 1.7 7.8 0.00 0.00 0.00 67 1014.4
20260905172526 91 198 4.3 7.8 0.00 0.00 0.00 66 1014.6
20260905172014 91 201 1.7 6.1 0.00 0.00 0.00 66 1014.5
20260905171531 91 212 2.6 7.8 0.00 0.00 0.00 66 1014.6
20260905171019 91 211 3.5 7.0 0.00 0.00 0.00 68 1014.6
20260905170516 90 114 2.6 6.1 0.00 0.00 0.00 67 1014.7
20260905170017 90 197 2.6 6.1 0.00 0.00 0.00 66 1014.7
20260905165516 90 193 2.6 5.2 0.00 0.00 0.00 67 1014.8
20260905165033 90 212 3.5 6.1 0.00 0.00 0.00 67 1014.8
20260905164520 90 231 2.6 6.1 0.00 0.00 0.00 68 1015.0
20260905164037 89 132 1.7 6.1 0.00 0.00 0.00 68 1014.9
20260905163526 89 240 3.5 7.0 0.00 0.00 0.00 67 1014.9
20260905163014 89 252 2.6 7.0 0.00 0.00 0.00 68 1014.8
20260905162531 88 239 3.5 7.0 0.00 0.00 0.00 69 1014.9
20260905162029 88 199 1.7 7.0 0.00 0.00 0.00 68 1014.9
20260905161518 88 295 1.7 7.0 0.00 0.00 0.00 67 1014.9
20260905161036 88 124 2.6 9.6 0.00 0.00 0.00 68 1014.9
20260905160524 87 175 1.7 7.8 0.00 0.00 0.00 69 1014.7
20260905160015 87 205 4.3 8.7 0.00 0.00 0.00 69 1014.7
20260905155524 87 252 2.6 8.7 0.00 0.00 0.00 69 1014.8
20260905155022 87 248 2.6 7.8 0.00 0.00 0.00 71 1014.9
20260905154540 87 188 3.5 7.8 0.00 0.00 0.00 70 1014.8
20260905154028 87 216 2.6 7.8 0.00 0.00 0.00 69 1014.9
20260905153516 87 150 2.6 7.0 0.00 0.00 0.00 71 1015.0
20260905153032 86 240 1.7 7.8 0.00 0.00 0.00 69 1015.0
20260905152520 87 137 1.7 7.8 0.00 0.00 0.00 70 1014.7
20260905152017 86 109 1.7 7.8 0.00 0.00 0.00 71 1014.7
20260905151526 85 175 1.7 7.0 0.00 0.00 0.00 72 1014.7
20260905151024 85 182 0.9 8.7 0.00 0.00 0.00 72 1014.9
20260905150541 84 180 1.7 10.4 0.00 0.00 0.00 72 1015.0
20260905150023 84 143 2.6 7.8 0.00 0.00 0.00 72 1014.9
20260905145519 84 204 3.5 7.8 0.00 0.00 0.00 72 1015.0
20260905145022 84 201 1.7 7.0 0.00 0.00 0.00 74 1015.1
20260905144519 84 182 2.6 9.6 0.00 0.00 0.00 73 1015.2
20260905144028 84 95 3.5 10.4 0.00 0.00 0.00 74 1015.3
20260905143526 83 178 4.3 10.4 0.00 0.00 0.00 74 1015.2
20260905143015 83 199 1.7 8.7 0.00 0.00 0.00 77 1015.1
20260905142532 82 163 2.6 8.7 0.00 0.00 0.00 76 1015.1
20260905142019 82 230 0.9 7.8 0.00 0.00 0.00 76 1015.0
20260905141517 82 192 2.6 9.6 0.00 0.00 0.00 77 1014.7
20260905141026 82 128 3.5 9.6 0.00 0.00 0.00 76 1014.7
20260905140523 82 171 1.7 7.8 0.00 0.00 0.00 78 1014.7
20260905140034 82 157 0.9 3.5 0.00 0.00 0.00 81 1014.6
20260905135522 81 163 0.0 3.5 0.00 0.00 0.00 82 1014.6
20260905135039 80 170 0.9 4.3 0.00 0.00 0.00 81 1014.5
20260905134528 80 118 1.7 7.0 0.00 0.00 0.00 82 1014.5
20260905134016 80 150 1.7 7.0 0.00 0.00 0.00 81 1014.6
20260905133533 80 161 1.7 6.1 0.00 0.00 0.00 82 1014.7
20260905133030 80 80 0.9 7.0 0.00 0.00 0.00 82 1014.7
20260905132517 79 156 1.7 6.1 0.00 0.00 0.00 83 1014.7
20260905132034 79 120 0.9 6.1 0.00 0.00 0.00 83 1014.6
20260905131522 79 89 1.7 6.1 0.00 0.00 0.00 83 1014.7
20260905131039 79 154 1.7 6.1 0.00 0.00 0.00 84 1014.9
20260905130527 79 149 1.7 6.1 0.00 0.00 0.00 84 1014.7
20260905130018 78 180 0.9 7.0 0.00 0.00 0.00 85 1014.9
20260905125536 78 145 0.9 7.0 0.00 0.00 0.00 84 1014.7
20260905125021 78 107 1.7 5.2 0.00 0.00 0.00 85 1014.8
20260905124537 78 124 1.7 6.1 0.00 0.00 0.00 85 1014.9
20260905124026 78 93 1.7 6.1 0.00 0.00 0.00 86 1014.8
20260905123514 79 132 0.9 5.2 0.00 0.00 0.00 89 1014.8
20260905123032 78 132 1.7 5.2 0.00 0.00 0.00 89 1014.7
20260905122519 78 89 0.9 2.6 0.00 0.00 0.00 90 1014.6
20260905122016 78 82 1.7 4.3 0.00 0.00 0.00 91 1014.5
20260905121534 77 107 0.0 7.0 0.00 0.00 0.00 92 1014.5
20260905121021 77 111 2.6 7.0 0.00 0.00 0.00 93 1014.5
20260905120534 76 206 0.0 0.9 0.00 0.00 0.00 93 1014.2
20260905120017 76 211 0.0 0.0 0.00 0.00 0.00 93 1014.1
20260905115514 76 212 0.0 0.0 0.00 0.00 0.00 93 1014.0
20260905115022 76 212 0.0 0.0 0.00 0.00 0.00 93 1014.1
20260905114518 76 212 0.0 0.0 0.00 0.00 0.00 93 1014.0
20260905114026 76 212 0.0 0.0 0.00 0.00 0.00 93 1014.0
20260905113521 76 211 0.0 0.0 0.00 0.00 0.00 93 1014.0
20260905113040 76 213 0.0 0.0 0.00 0.00 0.00 93 1014.2
20260905112527 76 211 0.0 0.0 0.00 0.00 0.00 93 1014.0
20260905112014 76 213 0.0 0.0 0.00 0.00 0.00 93 1013.9
20260905111531 76 211 0.0 0.0 0.00 0.00 0.00 93 1013.9
20260905111019 76 212 0.0 0.0 0.00 0.00 0.00 93 1013.8
20260905110516 76 211 0.0 0.0 0.00 0.00 0.00 93 1013.7
20260905110026 76 212 0.0 0.0 0.00 0.00 0.00 93 1013.7
20260905105514 76 211 0.0 0.0 0.00 0.00 0.00 93 1013.7
20260905105031 76 212 0.0 0.9 0.00 0.00 0.00 92 1013.7
20260905104520 76 212 0.0 0.9 0.00 0.00 0.00 92 1013.6
20260905104017 76 212 0.0 0.9 0.00 0.00 0.00 92 1013.8
20260905103525 76 212 0.0 0.0 0.00 0.00 0.00 92 1013.7
20260905103021 76 213 0.0 0.9 0.00 0.00 0.00 92 1013.7
20260905102529 76 212 0.0 0.9 0.00 0.00 0.00 92 1013.6
20260905102026 76 211 0.0 0.9 0.00 0.00 0.00 92 1013.6
20260905101515 76 212 0.0 0.9 0.00 0.00 0.00 91 1013.7
20260905101031 76 211 0.0 0.9 0.00 0.00 0.00 91 1013.7
20260905100520 76 212 0.0 0.9 0.00 0.00 0.00 91 1013.7
20260905100032 76 212 0.0 0.9 0.00 0.00 0.00 91 1013.9
20260905095529 76 211 0.0 0.0 0.00 0.00 0.00 91 1013.9
20260905095017 77 212 0.0 0.9 0.00 0.00 0.00 91 1013.9
20260905094533 77 213 0.0 0.9 0.00 0.00 0.00 91 1014.0
20260905094021 77 212 0.0 0.0 0.00 0.00 0.00 91 1014.0
20260905093538 77 212 0.0 0.0 0.00 0.00 0.00 91 1014.0
20260905093026 77 211 0.0 0.0 0.00 0.00 0.00 91 1014.0
20260905092523 77 213 0.0 0.0 0.00 0.00 0.00 91 1014.0
20260905092027 77 212 0.0 0.0 0.00 0.00 0.00 90 1013.9
20260905091525 77 213 0.0 0.0 0.00 0.00 0.00 90 1013.8
20260905091014 77 213 0.0 0.0 0.00 0.00 0.00 90 1013.7
20260905090531 77 213 0.0 0.0 0.00 0.00 0.00 90 1013.8